Regional Weather Roundup
Issued by NWS Upton, NY

Current Version | Previous Version | Text Only | Print | Product List | Glossary On
Versions: 1 2 3 4 5 6 7 8 9 10 11 12 13 14 15 16 17 18 19 20 21 22 23 24 25 26 27 28 29 30 31 32 33 34 35 36 37 38 39 40 41 42 43 44 45 46 47 48 49 50
462 ASUS41 KOKX 250608 RWROKX REGIONAL WEATHER ROUNDUP NATIONAL WEATHER SERVICE NEW YORK NY 100 AM EST SAT FEB 25 2017 NOTE: "FAIR" INDICATES FEW OR NO CLOUDS BELOW 12,000 FEET WITH NO SIGNIFICANT WEATHER AND/OR OBSTRUCTIONS TO VISIBILITY. NYZ071-072-176-178-NJZ106-104-250700- NEW YORK CITY METRO AREA CITY SKY/WX TMP DP RH WIND PRES REMARKS Central Park CLOUDY 60 55 83 CALM 29.86F Wall St Helipt NOT AVBL LaGuardia APRT CLOUDY 54 51 90 S5 29.84F Kennedy INTL FOG 51 51 100 S8 29.87S VSB 1/4 Breezy Point N/A 45 N/A N/A S7 N/A Newark/Liberty CLOUDY 59 56 89 VRB3 29.84F Teterboro MOCLDY 57 55 93 SW3 29.83F $$ NYZ177-179-078>081-250700- LONG ISLAND NEW YORK CITY SKY/WX TMP DP RH WIND PRES REMARKS Jones Beach N/A 46 N/A N/A S5 N/A Matinecock PT NOT AVBL Farmingdale FOG 51 51 100 S7 29.87F VSB 1/4 MacArthur/ISP FOG 52 52 100 S7 29.87S VSB 1/4 Shirley CLOUDY 53 53 100 S6 29.88F Westhampton CLOUDY 53 51 93 S7 29.90S Southampton NOT AVBL Bridgehampton NOT AVBL East Hampton CLOUDY 54 53 97 S6 29.89S Montauk N/A 50 50 100 S6 29.90F $$ NYZ052-065-067-250700- HUDSON VALLEY CITY SKY/WX TMP DP RH WIND PRES REMARKS White Plains FOG 55 54 96 S5 29.84F VSB 1/4 Newburgh MOCLDY 63 57 82 S6 29.84S Montgomery CLOUDY 59 55 87 CALM 29.79F Poughkeepsie CLOUDY 60 55 83 SE3 29.81S Albany PTCLDY 59 51 75 S16G29 29.75F $$ NJZ001-105-106-008-010-013-015-019>022-104-250700- NEW JERSEY CITY SKY/WX TMP DP RH WIND PRES REMARKS Newark/Liberty CLOUDY 59 56 89 VRB3 29.84F Teterboro MOCLDY 57 55 93 SW3 29.83F Caldwell CLOUDY 61 57 87 S7 29.83F Somerville CLOUDY 60 56 86 S5 29.81F Linden NOT AVBL Sussex CLOUDY 62 57 83 S8 29.81F Andover N/A 61 56 83 S6 29.81S Trenton CLOUDY 57 56 96 S6 29.82F Millville CLOUDY 54 54 100 CALM 29.83F Atlantic City CLEAR 55 53 93 S6 29.85S Wrightstown CLEAR 54 54 97 S6 29.81F Toms River CLEAR 54 53 97 S5 29.86S Belmar CLOUDY 53 52 96 S5 29.86S FOG $$ PAZ047>061-062-071-250700- EASTERN PENNSYLVANIA CITY SKY/WX TMP DP RH WIND PRES REMARKS Philadelphia MOCLDY 59 54 83 S6 29.83S Allentown CLOUDY 64 57 78 S12 29.80S Scranton PTCLDY 62 56 80 S12G20 29.76R $$ CTZ002-004>006-009-010-012-RIZ004-006-007-MAZ004-011-015-250700- SOUTHERN NEW ENGLAND IN CT CITY SKY/WX TMP DP RH WIND PRES REMARKS Bradley INTL CLOUDY 56 54 93 S9 29.84F Hartford CLOUDY 56 54 93 S7 29.85F Danbury CLOUDY 59 55 87 S8 29.85F Wtrbury/Oxford CLOUDY 55 52 88 S8 29.86F VSB 1/2 Bridgeport FOG 50 48 93 CALM 29.85F VSB 1/4 Meriden FOG 54 52 93 S7 29.86F VSB 1 New Haven FOG 50 50 100 CALM 29.86F VSB 1/2 Chester FOG 55 55 100 VRB6 29.87F VSB 1/4 Groton FOG 49 48 97 CALM 29.88F VSB 1/2 Wilimantic CLOUDY 58 56 93 S5 29.87F IN RI CITY SKY/WX TMP DP RH WIND PRES REMARKS Providence CLOUDY 50 49 96 S5 29.88F Block Island CLOUDY 50 49 96 S15 29.90F Westerly FOG 51 48 89 S5 29.90S VSB 1/2 IN MA CITY SKY/WX TMP DP RH WIND PRES REMARKS Boston NOT AVBL Worcester CLOUDY 56 53 90 SW14 29.85F Westfield CLOUDY 56 55 97 S6 29.83S Provincetown FOG 46 46 100 S15 29.90S VSB 1/2 Nantucket PTCLDY 46 45 96 S8 29.93F $$ ANZ330-335-338-340-345-350-353-355-250700- COASTAL MARINE OBSERVATIONS STATION/POSITION TIME SKY/WX TEMP WIND PRES VSBY WAVE AIR SEA DIR/SP/G HT/PER (UTC) (F) (DEG/KT/KT) (MB) (MI) (FT/S) NY HARB ENTRANCE 0450 46 44 230/ 4/ 4 1011.4 3/11 20 S FIRE ISLAND 0550 49 44 160/ 10/ 12 1011.1 3/10 GREAT SOUTH BAY NOT AVBL 23 SSW MONTAUK P 0450 49 44 1012.8 3/11 15 E BARNEGAT LI 0530 44 N/A 4/10 HUDSON CANYON 0450 47 1012.2 4/11 KINGS POINT 0542 1010.5 EXECUTION ROCKS NOT AVBL CENTRAL LI SOUND 0530 48 180/ 6/ 8 N/A 0 EASTERN LI SOUND NOT AVBL ROBBINS REEF 0542 170/ 6/ 7 1010.8 $$ >>>>>>>>>>>>>>>>>>>>>>>>>>>> KEY <<<<<<<<<<<<<<<<<<<<<<<<<<< > < > SKY/WX - Sky Condition/Present Weather < > TMP - Temperature in Fahrenheit < > DP - Dew Point in Fahrenheit < > RH - Relative Humidity in Percent < > WIND - Direction (from) and Speed in MPH < > PRES - Mean Sea Level Pressure (inches of Hg) < > WCI - Wind Chill Index < > VSB - VISIBILITY IN MILES < > HX - HEAT INDEX < > TC - TEMPERATURE IN CELSIUS < > VRB - VARIABLE WIND DIRECTION < > < >>>>>>>>>>>>>>>>>>>>>>>>>>>> KEY <<<<<<<<<<<<<<<<<<<<<<<<<<<

USA.gov is the U.S. government's official web portal to all federal, state and local government web resources and services.